Flag for Isle of Man Weather past 2 weeks in Ramsey, Isle of Man

Now
57 °F

Passing clouds.


Feels Like: 52 °F
Forecast: 56 / 58 °F
Wind: 24 mph from Southwest

Location: Isle Of Man / Ronaldsway Airport

Current Time: Oct 25, 2014 at 2:08:27 PM

Latest Report: Oct 25, 2014 at 1:20 PM


Visibility: N/A

Pressure: 29.83 "Hg

Humidity: 67%

Dew point: 46 °F

Location of RamseyLocation

Historic Weather in Ramsey — Graph

°F

Ramsey temperature yesterday

Maximum temperature yesterday: 54 °F (at 12:50 AM)
Minimum temperature yesterday: 50 °F (at 10:20 AM)
Average temperature yesterday: 53 °F

Past Weeks' High & Low Weather Summary

 TemperatureHumidityPressure
High63 °F (Oct 18, 11:50 AM)100% (Oct 11, 6:50 AM)30.21 "Hg (Oct 11, 6:50 AM)
Low43 °F (Oct 11, 6:50 AM)54% (Oct 21, 4:50 PM)29.27 "Hg (Oct 21, 3:50 AM)
Average55 °F82%29.74 "Hg
* Reported Oct 10 12:20 PM — Oct 25 12:50 PM, Ramsey, Weather by CustomWeather, © 2014

Note: Actual official high and low records may vary slightly from our data, if they occured in-between our weather recording intervals... More about our weather records

Advertising

Ramsey weather history for previous 24 hours

 ConditionsComfort  
Time TempWeatherWind HumidityBarometerVisibility
12:50 PM
Oct 25
55 °FPassing clouds.25 mph72%29.83 "HgN/A
12:20 PM57 °FScattered clouds.24 mph67%29.86 "HgN/A
11:50 AM57 °FPassing clouds.23 mph67%29.83 "HgN/A
11:20 AM57 °FPassing clouds.24 mph67%29.83 "HgN/A
10:50 AM55 °FPassing clouds.23 mph72%29.83 "HgN/A
10:20 AM55 °FScattered clouds.26 mph72%29.83 "HgN/A
9:50 AM54 °FSprinkles. Partly sunny.29 mph77%29.83 "HgN/A
9:20 AM54 °FScattered clouds.25 mph77%29.83 "HgN/A
8:50 AM55 °FPassing clouds.25 mph72%29.83 "HgN/A
8:20 AM55 °FPartly cloudy.24 mph67%29.83 "HgN/A
7:50 AM54 °FPartly cloudy.22 mph77%29.80 "HgN/A
7:20 AM54 °FPassing clouds.24 mph77%29.80 "HgN/A
6:50 AM54 °FPassing clouds.22 mph77%29.80 "HgN/A
6:20 AM54 °FPartly cloudy.25 mph82%29.80 "HgN/A
5:50 AM54 °FPartly cloudy.26 mph72%29.80 "HgN/A
5:20 AM54 °FPassing clouds.24 mph72%29.83 "HgN/A
4:50 AM54 °FPassing clouds.21 mph72%29.83 "HgN/A
3:50 AM54 °FPassing clouds.23 mph77%29.83 "HgN/A
2:50 AM54 °FPassing clouds.18 mph77%29.83 "HgN/A
12:50 AM54 °FPassing clouds.20 mph72%29.83 "HgN/A
11:50 PM
Oct 24
54 °FPassing clouds.16 mph77%29.83 "HgN/A
10:50 PM54 °FPassing clouds.20 mph77%29.83 "HgN/A
9:50 PM54 °FPassing clouds.20 mph77%29.86 "HgN/A
9:20 PM54 °FPassing clouds.21 mph72%29.83 "HgN/A
8:50 PM54 °FPassing clouds.21 mph72%29.83 "HgN/A
8:20 PM54 °FPassing clouds.18 mph72%29.83 "HgN/A
7:50 PM54 °FPassing clouds.18 mph72%29.83 "HgN/A
7:20 PM54 °FPartly cloudy.17 mph72%29.83 "HgN/A
6:50 PM54 °FScattered clouds.17 mph67%29.83 "HgN/A
6:20 PM54 °FPartly sunny.20 mph72%29.83 "HgN/A
5:50 PM54 °FScattered clouds.18 mph72%29.83 "HgN/A
5:20 PM54 °FPassing clouds.20 mph67%29.83 "HgN/A
4:50 PM54 °FPassing clouds.18 mph67%29.80 "HgN/A
4:20 PM52 °FPartly sunny.16 mph82%29.83 "HgN/A
3:50 PM52 °FLight rain. Scattered clouds.18 mph82%29.83 "HgN/A
3:20 PM54 °FBroken clouds.16 mph67%29.80 "HgN/A
2:50 PM54 °FScattered clouds.18 mph67%29.83 "HgN/A
2:20 PM54 °FLight rain. Passing clouds.18 mph67%29.83 "HgN/A
Weather by CustomWeather, © 2014

See weather overviewHow to use our weather pages